Regional Weather Roundup
Issued by NWS

Home | Current Version | Previous Version | Text Only | Print | Product List | Glossary Off
Versions: 1 2 3 4 5 6 7 8 9 10 11 12 13 14 15 16 17 18 19 20 21 22 23 24 25 26 27 28 29 30 31 32 33 34 35 36 37 38 39 40 41 42 43 44 45 46 47 48 49 50

000
ASUS45 KPSR 280310
RWRAZ

ARIZONA REGIONAL HOURLY WEATHER ROUNDUP
NATIONAL WEATHER SERVICE PHOENIX AZ
800 PM MST TUE JAN 27 2015

NOTE: FAIR INDICATES FEW OR NO CLOUDS BELOW 12,000 FEET WITH NO
SIGNIFICANT WEATHER AND/OR OBSTRUCTIONS TO VISIBILITY.

AZZ001>003-036-280400-
NORTHWEST ARIZONA

CITY           SKY/WX    TMP DP  RH WIND       PRES   REMARKS
BULLHEAD CITY  PTCLDY    61  54  77 CALM      30.20R
KINGMAN        MOCLDY    50  46  86 S7        30.23R
$$

AZZ004>008-015-016-018-280400-
NORTH CENTRAL ARIZONA

CITY           SKY/WX    TMP DP  RH WIND       PRES   REMARKS
GRAND CANYON   PTCLDY    38  34  85 CALM      30.30R
PRESCOTT       CLEAR     45  37  73 S6        30.27R
FLAGSTAFF      PTCLDY    34  29  82 CALM      30.32R
PAYSON         CLOUDY    50  43  76 CALM      30.29S
$$

AZZ009>014-017-280400-
NORTHEAST ARIZONA

CITY           SKY/WX    TMP DP  RH WIND       PRES   REMARKS
WINSLOW        PTCLDY    45  38  76 SW9       30.26R
SAINT JOHNS    CLEAR     47  38  71 SW6       30.27S
WINDOW ROCK    MOCLDY    44  34  67 CALM      30.31R
SHOW LOW       PTCLDY    37  34  87 S7        30.33R WCI  32
$$

AZZ023-280400-
GREATER PHOENIX AREA

CITY           SKY/WX    TMP DP  RH WIND       PRES   REMARKS
PHOENIX        PTCLDY    67  50  54 W3        30.13S
BUCKEYE          N/A     59  59 100 N5        30.15S
GLENDALE       MOCLDY    64  52  63 VRB3      30.15S
LUKE AFB       NOT AVBL
DEER VALLEY    CLEAR     64  49  57 N3        30.15R
SCOTTSDALE     CLEAR     64  51  62 CALM      30.16S
MESA-FALCON    PTCLDY    64  50  59 VRB5      30.14S
MESA-GATEWAY   PTCLDY    61  54  77 VRB3      30.17R
CHANDLER       PTCLDY    64  54  68 VRB6      30.15R
$$

AZZ027-028-280400-
SOUTHWEST MARICOPA COUNTY AND PINAL COUNTY

CITY           SKY/WX    TMP DP  RH WIND       PRES   REMARKS
CASA GRANDE    PTCLDY    59  52  77 CALM      30.16S
GILA BEND      PTCLDY    62  57  81 W3        30.14R
$$

AZZ503-504-507>509-280400-
SOUTHEAST ARIZONA

CITY           SKY/WX    TMP DP  RH WIND       PRES   REMARKS
TUCSON         PTCLDY    61  49  64 W7        30.19R
DAVIS-MONTHAN  PTCLDY    62  49  62 W2        30.17R
RYAN FIELD       N/A     61  50  67 W8        30.19S
NOGALES        PTCLDY    57  43  59 CALM      30.20R
SIERRA VISTA   CLOUDY    55  45  67 W10       30.23R
DOUGLAS        MOCLDY    56  36  47 E7        30.20S
SAFFORD        PTCLDY    59  36  42 N9        30.16S
$$

AZZ020-021-025-026-031-280400-
SOUTHWEST ARIZONA

CITY           SKY/WX    TMP DP  RH WIND       PRES   REMARKS
YUMA           MOCLDY    62  55  77 NW7       30.14S
$$

CAZ031-033-041-043-047-048-061-280400-
SOUTHERN CALIFORNIA

CITY           SKY/WX    TMP DP  RH WIND       PRES   REMARKS
DOWNTOWN L.A.  CLEAR     61  53  75 CALM      30.17R
L.A. AIRPORT   CLEAR     61  56  83 W9        30.17R
SAN DIEGO      PTCLDY    63  53  70 N5        30.18R
BURBANK        CLEAR     63  45  51 CALM      30.17R
ONTARIO        PTCLDY    62  50  64 W5        30.17R
RIVERSIDE      CLEAR     62  48  60 W5        30.17R
PALM SPRINGS   CLEAR     63  51  65 CALM      30.20R
EL CENTRO NAS  PTCLDY    58  54  86 CALM      30.17R
IMPERIAL       CLEAR     60  54  80 NW3       30.16R
BLYTHE         CLEAR     61  56  83 W9        30.16S
NEEDLES        PTCLDY    61  54  77 W6        30.18R
$$

NVZ020-UTZ003-280400-
SOUTHERN NEVADA-UTAH

CITY           SKY/WX    TMP DP  RH WIND       PRES   REMARKS
LAS VEGAS      PTCLDY    58  48  69 S5        30.17R
SALT LAKE CITY PTCLDY    41  36  82 CALM      30.14S
$$

NMZ009-TXZ055-280400-
NEW MEXICO-WEST TEXAS

CITY           SKY/WX    TMP DP  RH WIND       PRES   REMARKS
ALBUQUERQUE    PTCLDY    43  28  55 S3        30.26R
EL PASO        PTCLDY    60  39  45 CALM      30.21R
$$


........................KEY........................
SKY/WX - SKY CONDITION/WEATHER
TMP    - TEMPERATURE IN FAHRENHEIT
DP     - DEW POINT IN FAHRENHEIT
RH     - RELATIVE HUMIDITY IN PERCENT
WIND   - DIRECTION AND SPEED IN MILES PER HOUR (MPH)
VRB    - VARIABLE WIND DIRECTION
PRES   - MEAN SEA LEVEL PRESSURE IN INCHES OF MERCURY
         F - FALLING PRESSURE   R - RISING PRESSURE
         S - STEADY PRESSURE
VSB    - VISIBILITY IN MILES
HX     - HEAT INDEX IN FAHRENHEIT
WCI    - WIND CHILL INDEX IN FAHRENHEIT
TC     - TEMPERATURE IN CELSIUS WHICH IS ALSO KNOWN AS
         TEMPERATURE IN CENTIGRADE
AFB    - AIR FORCE BASE
         LUKE AFB IS LUKE AIR FORCE BASE
         DAVIS-MONTHAN IS DAVIS-MONTHAN AIR FORCE BASE
NAS    - NAVAL AIR STATION
         EL CENTRO NAS IS EL CENTRO NAVAL AIR STATION
N/A    - NOT AVAILABLE


USA.gov is the U.S. government's official web portal to all federal, state and local government web resources and services.